This demonstration page uses our WeatherBlox Daily Observations layout. Learn more.

Left ArrowRight Arrow

Hourly Observations for September 12, 2020

Temp ( °F °C ) Dew Point ( °F °C ) Humidity (%) Winds ( mph kmh ) Pressure ( in mb ) Visibility ( mi km ) Precip ( " mm )
12:40 am 00:40 Cloudy 58 14.4 56 13.3 93 93 S 5 7 30.00 1016 10 16 0.00 0.00
12:52 am 00:52 Cloudy 58 14.4 56 13.3 93 93 S 6 9 30.01 1016 10 16 0.00 0.00
1:37 am 01:37 Cloudy 58 14.4 55 12.8 90 90 WSW 5 7 29.99 1016 10 16 0.00 0.00
1:52 am 01:52 Mostly Cloudy 57 13.9 55 12.8 93 93 Calm 29.99 1016 10 16 0.00 0.00
1:59 am 01:59 Mostly Cloudy 57 13.9 55 12.8 93 93 SW 3 6 29.99 1015 10 16 0.00 0.00
2:52 am 02:52 Partly Cloudy 54 12.2 53 11.7 97 97 SSE 5 7 29.97 1015 10 16 0.00 0.00
2:59 am 02:59 Mostly Cloudy 54 12.2 53 11.7 97 97 S 3 6 29.97 1015 10 16 0.00 0.00
3:52 am 03:52 Cloudy 56 13.3 55 12.8 97 97 WSW 6 9 29.96 1015 10 16 0.00 0.00
4:52 am 04:52 Cloudy 55 12.8 54 12.2 96 96 SSW 3 6 29.96 1014 10 16 0.00 0.00
5:52 am 05:52 Cloudy 55 12.8 53 11.7 93 93 Calm 29.94 1014 10 16 0.00 0.00
6:52 am 06:52 Cloudy 55 12.8 53 11.7 93 93 SSW 3 6 29.95 1014 10 16 0.00 0.00
7:52 am 07:52 Cloudy 55 12.8 54 12.2 96 96 S 9 15 29.97 1015 10 16 0.00 0.00
8:52 am 08:52 Cloudy 55 12.8 54 12.2 96 96 SSE 6 9 29.96 1015 7 11 0.00 0.00
9:52 am 09:52 Cloudy 56 13.3 55 12.8 97 97 SSE 7 11 29.96 1014 7 11 0.00 0.00
10:52 am 10:52 Cloudy 57 13.9 56 13.3 96 96 SSE 7 11 29.96 1014 10 16 0.00 0.00
11:52 am 11:52 Cloudy 59 15 55 12.8 87 87 S 6 9 29.95 1014 10 16 0.00 0.00
12:49 pm 12:49 Cloudy 63 17 55 13 77 77 SSW 5 7 29.92 1013 10 16 0.00 0.00
12:52 pm 12:52 Cloudy 62 16.7 56 13.3 80 80 SW 6 9 29.93 1014 10 16 0.00 0.00
1:52 pm 13:52 Mostly Cloudy 66 18.9 56 13.3 70 70 VRB 3 6 29.92 1013 10 16 0.00 0.00
2:52 pm 14:52 Mostly Cloudy 68 20 54 12.2 61 61 WNW 6 9 29.91 1013 10 16 0.00 0.00
3:52 pm 15:52 Mostly Cloudy 72 22.2 53 11.7 52 52 VRB 5 7 29.90 1012 10 16 0.00 0.00
4:52 pm 16:52 Mostly Cloudy 70 21.1 54 12.2 57 57 N 6 9 29.90 1013 10 16 0.00 0.00
5:52 pm 17:52 Mostly Cloudy 70 21.1 55 12.8 59 59 NNW 8 13 29.92 1013 10 16 0.00 0.00
6:52 pm 18:52 Mostly Sunny 69 20.6 55 12.8 61 61 NNW 7 11 29.94 1014 10 16 0.00 0.00
7:52 pm 19:52 Mostly Clear 64 17.8 55 12.8 73 73 NNW 3 6 29.96 1015 10 16 0.00 0.00
8:52 pm 20:52 Mostly Clear 59 15 55 12.8 87 87 N 3 6 30.00 1016 10 16 0.00 0.00
9:52 pm 21:52 Mostly Clear 58 14.4 55 12.8 90 90 NNW 3 6 30.02 1017 10 16 0.00 0.00
10:52 pm 22:52 Mostly Clear 57 13.9 55 12.8 93 93 Calm 30.03 1017 10 16 0.00 0.00
11:52 pm 23:52 Clear 54 12.2 53 11.7 97 97 SE 5 7 30.03 1017 10 16 0.00 0.00

Powered by AerisWeather